RH
75 64 25 24 66 74 76 91 94 97 98 94 96 96 99 99 95 78 68 99 99 99 88 90 96 87 61 62 80 89 84 89 90 93 90 85 80 77 76 75 84 86 95 97 100 100 91 45 65 71 58 58 62 61
82 78 37 28 25 43 71 94 97 79 98 96 100 92 92 98 87 98 80 85 97 98 90 96 84 85 79 78 77 83 81 84 84 93 92 88 90 86 83 79 60 78 72 79 80 75 51 50 52 55 58 62 64 67
99 89 39 32 24 45 42 83 96 84 99 98 92 93 90 94 96 85 97 88 100 100 96 94 76 75 71 69 74 74 81 80 78 80 86 89 94 85 92 83 71 55 55 65 67 55 53 55 56 57 59 60 66 70
99 95 54 27 34 72 29 82 90 96 98 98 98 91 88 87 90 84 90 87 93 99 98 91 93 84 77 76 73 73 74 79 83 80 84 88 93 78 91 82 84 71 64 72 76 64 62 60 58 60 62 64 71 71
98 89 59 47 76 68 45 89 92 96 100 98 99 92 88 87 85 84 84 88 86 99 98 97 88 90 88 83 80 80 83 83 86 95 96 93 83 87 86 88 95 67 73 82 82 59 57 60 60 62 61 63 69 70
94 86 47 43 40 40 61 91 96 95 99 96 95 91 94 99 96 88 93 97 91 96 100 100 99 96 92 90 86 87 90 89 92 95 95 86 83 82 99 91 66 58 56 55 58 51 54 56 58 61 61 64 69 71
92 92 84 91 87 52 82 83 90 71 99 99 88 94 90 92 92 91 94 100 99 100 100 99 98 98 100 99 100 100 98 97 94 97 98 87 83 86 95 88 63 58 60 59 60 60 60 60 59 61 62 64 68 70
96 96 82 96 92 96 66 79 94 57 88 29 74 85 89 85 91 89 96 99 99 100 100 100 99 88 97 96 98 100 99 100 99 94 94 96 87 88 98 78 70 72 70 70 64 59 56 58 62 64 65 65 68 69
98 90 91 98 97 93 74 83 87 45 31 33 76 96 89 88 87 96 89 99 100 100 99 100 99 99 96 90 94 100 96 98 94 99 97 97 93 98 87 86 77 72 75 78 71 67 66 67 67 68 67 68 67 69
98 92 94 98 98 93 79 91 83 34 25 67 82 98 96 94 98 98 100 100 100 100 100 99 85 93 90 90 96 97 100 99 94 91 99 99 98 86 65 62 72 76 74 76 84 73 71 72 72 70 68 67 68 70
98 97 96 94 98 94 77 88 68 32 23 60 90 98 90 99 99 100 99 100 99 100 96 90 89 89 91 89 93 91 100 100 99 97 97 100 98 75 73 80 86 91 88 86 82 81 82 76 72 71 70 68 69 69
99 99 98 98 99 97 76 89 81 34 30 81 98 98 98 100 100 100 99 99 100 99 99 96 88 82 91 88 94 96 100 99 98 85 95 99 91 81 81 84 89 90 85 89 87 82 82 74 70 74 70 68 68 73
98 99 98 95 98 98 91 92 80 41 33 98 100 100 99 99 99 99 99 100 100 100 100 100 99 92 89 93 97 97 100 98 84 96 90 96 85 85 83 86 88 88 81 82 82 83 78 72 73 74 71 68 69 89
100 100 97 97 99 99 94 82 52 41 46 99 95 99 98 99 98 97 99 99 99 100 99 100 100 98 91 97 97 95 88 86 94 98 91 97 93 86 84 85 93 92 85 79 78 81 84 79 78 79 78 78 93 90
100 100 98 100 99 99 98 66 51 40 70 94 96 98 98 94 98 95 96 100 100 99 99 100 100 96 100 100 95 98 97 95 85 88 98 98 90 85 84 84 88 91 90 85 80 78 79 83 87 89 96 100 100 84
98 97 99 99 97 82 74 66 46 51 98 98 95 93 86 95 100 100 98 100 99 95 100 99 100 100 99 98 98 94 85 86 98 98 97 92 89 87 88 81 82 85 87 88 86 81 79 81 83 85 93 97 92 87
100 99 97 97 98 94 92 71 50 92 94 93 89 80 92 94 97 93 88 85 90 98 100 100 99 98 100 100 98 92 97 100 99 95 87 86 89 87 88 86 82 80 85 86 85 84 83 80 82 83 82 80 79 74
99 99 98 96 95 87 67 49 68 94 98 91 92 84 86 91 90 92 90 86 89 94 98 99 99 99 98 99 99 99 99 91 88 85 74 72 81 84 76 71 79 79 78 85 88 87 88 87 85 83 81 77 71 63
98 98 99 99 99 77 54 57 57 94 91 92 88 86 87 90 88 94 91 94 90 92 87 99 99 98 97 97 97 96 90 86 79 68 60 52 72 70 59 58 68 79 78 78 86 89 90 90 87 85 81 76 70 63
99 99 98 100 99 60 41 56 55 82 97 93 94 93 91 94 95 98 99 99 96 85 97 99 93 84 88 85 84 83 79 66 61 57 47 49 48 47 49 63 77 83 86 85 86 90 92 91 90 86 83 78 71 63
100 100 99 98 97 79 61 47 64 89 99 90 97 95 96 99 100 99 100 96 98 92 99 71 73 74 80 82 81 79 64 53 44 43 42 36 39 48 48 55 82 74 86 92 94 91 95 95 94 91 86 81 73 66
99 99 98 98 93 83 67 69 80 88 84 98 95 96 97 98 98 100 100 98 90 76 60 58 51 68 82 79 74 61 47 39 33 34 40 40 38 38 38 42 53 86 82 80 97 97 95 97 98 96 90 85 78 70
99 99 97 94 95 95 85 74 77 90 98 97 95 95 98 97 96 97 100 95 88 60 48 64 73 73 74 72 67 56 53 39 34 39 41 42 40 42 43 45 53 57 56 61 86 96 98 100 100 97 93 90 84 76
99 97 95 94 97 91 79 88 91 99 98 93 96 86 93 96 100 100 97 90 69 58 54 59 65 75 75 72 65 59 53 32 27 32 45 45 44 44 48 45 45 48 51 66 82 91 100 100 100 99 96 92 88 78
97 96 94 97 100 84 92 98 98 99 91 91 95 90 93 93 97 100 97 73 58 63 58 57 58 55 57 45 32 28 35 32 31 27 32 44 53 52 52 54 51 50 56 74 88 93 97 98 97 99 98 97 94 83
96 95 96 91 92 81 81 92 94 93 90 94 91 87 87 98 100 76 83 48 35 28 31 30 26 23 21 18 19 22 30 35 34 34 32 45 55 64 63 62 58 48 57 64 73 93 98 99 98 97 97 97 97 96
97 99 97 81 63 63 73 67 69 84 93 89 91 95 95 90 75 69 30 22 19 20 25 24 14 13 15 19 24 29 34 37 42 44 43 47 58 64 69 68 62 60 67 67 74 82 98 100 98 97 96 97 96 96
88 84 92 80 63 56 77 79 79 81 78 64 77 90 84 70 59 23 17 15 15 20 28 35 32 24 23 24 29 35 42 48 49 47 50 55 59 65 68 68 68 70 74 78 83 84 94 99 99 97 96 96 96 96
76 74 64 92 77 69 69 69 71 44 47 59 77 73 73 38 29 17 15 16 17 19 22 26 34 38 35 33 37 42 47 51 60 64 68 66 63 62 73 74 71 74 84 90 99 100 97 97 98 96 96 96 96 96
89 65 70 76 87 92 72 46 52 51 52 54 54 52 46 36 26 24 23 24 25 25 28 31 33 36 38 42 41 45 59 71 75 78 77 71 72 75 80 84 85 86 94 99 98 97 98 97 97 98 97 96 96 96
72 70 70 66 81 76 66 59 52 50 51 49 51 55 49 40 30 27 26 26 27 29 32 34 36 38 39 47 59 63 61 66 72 77 80 84 86 87 87 87 90 94 95 97 97 97 96 97 98 95 96 96 96 96
80 82 89 95 93 84 77 71 65 63 73 66 62 61 60 55 51 38 35 32 31 29 30 32 35 47 59 65 67 68 70 70 76 82 86 89 92 93 95 90 89 95 96 97 96 97 98 97 95 96 95 96 95 96
98 93 88 88 92 94 87 72 82 83 88 88 85 87 75 66 62 41 37 34 33 31 33 39 53 61 63 66 67 69 75 79 80 84 93 100 100 100 99 99 99 97 96 94 95 96 96 96 96 96 95 96 96 96
Wind_Speed
14 18 22 17 16 15 7 12 19 15 16 17 15 14 14 17 14 10 4 6 4 4 14 6 4 3 3 2 2 4 3 0 1 1 1 2 1 2 1 4 5 5 6 3 3 4 6 7 4 3 4 5 7 7
19 21 21 15 19 17 8 12 19 19 15 16 15 14 13 15 15 12 7 7 9 8 8 9 10 7 3 5 4 6 2 1 4 1 2 1 1 3 2 2 2 3 6 4 7 6 6 1 5 6 8 9 7 6
22 16 15 16 19 16 11 9 18 20 16 16 16 15 15 15 15 11 14 8 9 6 9 8 7 13 10 7 7 4 3 4 3 1 2 1 3 2 1 3 2 2 1 3 1 4 3 2 1 6 8 7 5 2
15 13 14 14 16 15 12 9 16 19 17 16 15 15 16 16 18 17 15 10 10 7 3 3 4 6 10 10 10 10 6 8 3 1 2 2 2 2 2 3 2 5 5 2 5 8 2 1 4 6 6 4 1 3
14 14 13 12 13 14 10 10 16 21 18 18 18 19 20 19 15 14 16 16 15 9 3 4 2 6 7 9 11 10 9 10 5 2 2 2 2 1 3 2 4 6 6 4 5 5 1 3 6 5 4 2 2 3
13 11 15 11 14 11 8 11 17 22 18 18 20 22 22 20 15 9 6 6 12 16 5 2 1 5 4 7 8 10 11 7 4 4 3 3 3 4 2 3 6 13 13 16 8 20 10 5 5 4 3 3 5 7
16 15 10 12 12 12 10 13 17 21 18 20 20 13 12 8 8 12 4 4 12 16 4 2 1 4 6 6 6 6 8 5 5 3 4 3 4 6 2 5 6 20 26 23 18 12 6 8 5 3 3 4 8 10
18 15 12 13 14 13 13 14 19 19 18 19 5 6 5 5 4 12 15 6 5 8 3 1 2 2 5 4 4 6 5 5 5 3 2 3 3 4 3 8 16 17 13 8 6 7 10 7 7 6 6 8 12 14
17 15 17 11 11 14 16 16 19 20 19 10 2 2 4 2 1 3 8 6 6 3 3 1 1 1 5 4 4 5 5 2 4 2 2 2 2 4 3 11 17 20 14 13 11 5 6 7 8 9 10 13 14 17
16 16 16 12 11 15 15 16 20 18 18 2 3 2 2 2 3 3 5 5 3 3 3 2 2 1 4 5 3 4 3 1 2 2 2 2 2 10 15 20 17 18 16 12 11 10 8 8 11 12 13 13 14 17
19 17 15 10 12 13 13 15 19 18 12 1 2 2 1 2 2 2 3 3 4 3 5 5 3 2 3 2 1 1 1 0 1 1 1 1 1 6 23 21 21 18 16 14 14 17 15 11 11 14 16 16 17 20
14 18 12 12 12 13 10 14 17 16 12 3 1 1 3 3 3 2 2 2 3 3 3 2 3 3 2 1 1 1 2 1 3 1 1 2 2 17 22 23 23 19 17 12 6 6 9 10 8 13 17 19 20 21
12 11 10 11 12 13 9 12 13 14 10 0 2 1 1 3 3 3 4 3 2 2 2 1 0 1 2 2 1 1 1 3 1 1 2 1 10 20 22 22 20 16 14 11 7 4 5 6 7 13 19 19 19 18
13 10 8 10 12 14 9 10 10 11 3 2 2 2 3 3 3 1 1 1 2 2 3 1 1 1 1 1 1 2 2 1 1 1 2 2 17 21 19 19 19 18 15 13 11 6 2 4 6 13 16 17 17 19
10 7 7 12 13 11 7 6 9 8 2 2 2 4 3 3 1 1 2 3 3 3 2 2 0 1 1 1 1 1 0 3 3 2 2 12 16 18 21 20 19 19 15 12 10 5 2 4 8 11 12 14 17 19
7 8 11 11 5 1 3 7 7 3 1 2 4 3 2 1 2 3 2 3 3 3 3 2 1 1 2 2 2 4 2 4 2 1 5 14 12 16 21 21 19 17 15 13 10 7 4 4 7 11 13 15 18 20
11 15 11 6 2 3 8 7 3 2 2 3 4 8 6 2 1 4 3 2 2 3 1 1 2 2 1 2 3 1 1 2 2 2 9 12 11 13 20 21 21 18 15 13 11 9 6 5 6 10 13 16 19 21
18 15 8 3 1 4 6 3 2 3 4 6 4 5 7 2 2 3 3 3 2 2 3 1 1 2 3 3 3 2 4 1 2 6 9 12 10 11 19 20 20 18 17 14 12 10 8 7 7 9 13 17 19 22
18 12 8 5 5 1 2 3 4 3 5 3 6 5 5 3 9 8 8 6 4 3 1 1 2 3 3 3 4 10 6 3 5 9 12 14 10 16 20 18 14 15 16 15 13 10 8 7 8 9 11 16 20 23
14 13 9 8 7 4 2 3 4 4 2 2 4 3 4 3 7 10 11 7 5 2 1 3 4 5 5 9 7 4 4 5 8 12 13 10 13 15 17 15 15 13 13 13 13 12 10 9 10 10 12 17 20 24
20 18 14 9 10 8 4 4 4 3 3 2 2 4 3 5 5 5 5 11 5 5 3 12 11 10 9 6 6 7 6 6 7 10 14 18 17 17 18 18 16 16 14 13 14 12 12 11 10 11 14 18 20 23
23 21 13 13 5 6 5 5 3 2 3 2 1 3 3 3 5 5 7 8 7 9 11 8 11 14 13 10 8 7 5 5 8 11 12 14 17 18 19 19 18 17 18 15 13 15 13 12 13 14 16 18 21 23
23 20 9 8 6 8 3 4 3 2 2 2 1 1 3 4 4 5 4 7 9 13 17 18 14 11 10 10 10 9 7 9 10 11 12 14 16 17 19 19 18 20 21 20 15 16 15 11 14 14 16 20 22 25
22 12 9 7 8 4 4 3 3 2 2 1 1 3 3 5 5 3 4 6 10 9 13 16 15 14 13 14 14 12 11 12 13 14 14 15 17 17 18 21 22 22 20 20 18 16 14 13 15 17 19 21 24 28
9 7 7 3 7 4 2 3 3 3 3 3 2 3 3 5 1 3 3 6 11 14 12 11 13 13 14 11 12 12 13 14 16 20 19 18 21 24 24 22 21 21 19 17 16 14 14 14 18 20 21 25 27 30
6 12 11 12 5 6 6 5 5 5 3 4 5 2 3 2 0 6 3 5 10 10 15 17 15 13 13 12 12 12 14 18 20 24 24 22 23 24 25 26 27 26 17 15 17 15 14 16 19 22 25 26 29 31
7 6 9 8 8 6 3 2 4 3 5 6 3 4 2 3 5 4 5 8 8 12 15 14 11 10 10 11 15 18 21 23 24 27 27 26 27 25 24 26 30 27 22 19 18 19 17 17 20 23 25 27 29 32
5 12 8 16 7 7 4 3 4 5 4 7 9 5 6 7 4 3 5 6 10 10 13 17 17 17 17 18 22 25 26 27 27 27 28 29 28 25 23 23 24 22 21 20 18 20 22 20 20 21 24 27 30 30
6 16 15 4 5 6 8 6 5 7 7 12 5 4 4 6 5 4 6 7 8 11 13 17 21 23 24 26 29 29 28 24 24 27 30 33 33 29 21 22 21 19 18 19 16 17 18 18 19 21 22 25 27 31
9 22 7 7 6 7 11 14 6 8 12 12 6 5 7 11 11 11 14 16 19 20 20 23 25 25 26 26 24 20 20 22 23 26 31 34 33 28 24 20 19 19 19 17 16 14 15 17 16 19 24 28 28 32
23 12 6 7 4 6 8 13 11 9 8 9 16 17 16 14 26 28 26 23 21 21 20 18 16 15 15 16 19 23 27 23 20 21 24 26 26 26 23 17 14 14 16 16 15 14 14 20 24 26 25 28 29 34
10 8 6 4 3 5 7 8 5 6 5 6 6 9 7 6 6 11 16 12 9 9 10 11 10 11 15 17 20 22 24 25 23 22 23 24 24 23 20 17 15 14 14 14 12 12 16 24 25 26 25 28 29 33
5 6 5 6 4 4 5 5 3 2 4 3 4 4 6 5 9 7 8 10 9 8 8 8 10 12 15 17 19 19 19 20 20 20 21 21 22 19 14 11 9 10 12 13 12 14 18 24 25 25 25 25 31 40
Wind_Direction
271 272 299 301 314 318 319 334 324 324 321 324 331 340 340 333 338 341 299 300 311 257 271 270 300 325 95 101 173 159 99 350 51 171 139 278 127 261 28 161 174 167 168 196 176 209 256 250 101 227 251 298 310 318
252 253 303 307 307 312 311 329 319 326 315 319 323 330 330 322 329 327 301 289 290 265 253 271 259 220 162 100 129 153 139 147 180 198 198 5 337 349 349 272 145 193 188 184 194 212 241 198 246 275 311 307 308 303
249 246 294 293 302 310 302 319 314 326 318 313 314 317 316 314 306 311 299 305 304 264 282 263 240 208 214 212 196 153 188 206 190 135 138 110 250 168 264 258 291 291 259 238 231 261 200 203 39 333 323 319 315 250
246 243 282 295 302 304 308 310 314 319 313 313 309 305 304 299 293 300 274 273 265 270 260 221 183 194 211 214 213 215 203 202 213 186 188 220 250 159 250 273 219 226 343 305 282 291 79 139 0 335 324 332 320 167
252 267 278 293 303 304 311 318 314 319 312 312 310 310 303 301 289 286 280 263 237 244 299 281 257 195 215 207 204 202 200 191 181 170 198 228 241 283 246 262 242 206 206 188 229 247 239 273 317 318 306 293 173 191
238 260 275 297 311 313 326 319 319 322 319 315 316 309 302 290 276 273 291 228 210 227 291 272 122 165 174 186 196 204 205 216 206 185 211 220 234 176 254 261 259 257 261 259 261 287 266 282 292 300 284 190 169 165
234 234 265 277 293 314 318 329 319 323 322 319 320 315 312 295 237 205 226 158 189 208 244 262 264 166 175 161 176 188 197 201 198 205 219 230 225 203 242 269 279 295 295 299 302 285 231 239 245 270 267 190 169 162
233 238 247 269 303 324 329 328 323 326 323 332 334 356 42 60 140 217 236 219 202 210 242 281 269 162 167 170 176 178 179 194 219 221 222 215 218 208 255 262 295 322 332 325 328 256 255 242 223 234 221 189 173 165
229 231 239 276 313 327 331 329 325 329 334 331 249 82 37 35 156 245 239 234 195 235 302 239 161 236 179 194 167 171 183 195 207 214 218 201 190 221 277 335 332 324 327 313 310 293 241 246 234 218 200 186 182 168
228 245 259 268 303 319 323 328 328 336 341 277 218 199 175 228 286 208 152 174 223 228 237 260 255 189 183 167 202 182 185 226 225 202 156 217 253 259 1 341 333 325 315 304 285 275 249 245 236 214 207 199 193 175
231 238 248 271 291 314 323 328 332 341 352 299 221 212 202 241 177 225 212 207 202 209 208 231 224 155 206 174 180 188 172 178 259 203 189 250 257 345 343 347 347 343 330 307 269 257 263 279 270 224 200 197 190 179
255 247 244 269 295 310 319 324 329 342 344 336 262 196 154 214 225 226 207 212 189 221 175 177 182 180 154 163 198 211 158 109 232 146 177 264 43 346 353 353 355 353 351 351 337 274 257 263 258 216 202 194 192 189
261 258 239 272 295 309 310 319 327 336 338 330 275 244 153 197 235 223 181 203 179 27 11 90 225 145 175 156 93 94 166 223 142 149 234 167 343 350 354 355 356 1 3 1 350 300 278 267 231 204 195 197 195 191
258 266 248 278 293 306 296 324 324 335 319 171 240 206 193 196 235 195 165 127 147 101 49 74 81 172 158 103 194 194 199 99 225 234 232 4 346 348 353 358 360 4 9 8 4 358 280 257 214 197 204 203 204 188
249 245 261 276 288 285 295 311 326 326 275 215 210 224 203 285 67 103 143 154 145 163 113 153 255 190 55 177 198 97 168 233 211 189 91 350 351 359 3 1 1 2 4 6 1 1 324 245 220 218 217 216 202 194
217 244 256 283 292 331 322 323 307 289 268 230 245 267 210 325 183 176 183 195 175 175 144 127 100 182 221 171 163 216 218 224 127 50 346 346 358 6 6 4 0 358 357 354 354 348 320 261 239 229 217 211 210 204
213 240 258 287 246 330 313 309 265 193 232 234 254 246 262 290 219 182 184 192 202 180 150 137 200 193 87 200 223 239 215 105 119 3 359 0 356 1 1 1 1 0 358 357 351 343 327 289 246 231 219 210 209 208
220 238 256 237 210 317 302 214 218 211 248 240 254 249 218 265 246 206 221 255 233 164 159 170 154 212 207 211 179 141 150 153 257 313 348 356 345 345 343 344 350 353 354 353 348 338 326 311 271 238 225 217 207 204
225 231 241 238 212 257 265 224 223 241 240 263 245 253 222 228 233 226 217 228 232 213 200 162 229 222 226 160 152 165 176 227 290 314 325 335 319 320 325 326 334 343 347 344 342 334 317 284 269 260 235 218 210 203
209 227 240 221 204 189 266 234 230 246 243 248 226 219 222 226 230 233 223 214 208 235 244 210 223 223 212 191 169 184 271 295 306 315 330 341 326 329 332 332 332 331 334 332 328 323 317 297 272 253 239 228 217 208
198 207 216 216 196 198 245 245 233 228 233 246 215 216 257 242 246 237 223 194 191 219 240 232 227 223 227 231 229 250 264 284 304 312 315 319 326 328 330 327 320 321 318 317 314 308 302 296 281 265 245 230 222 217
196 202 206 198 176 200 248 238 232 238 208 179 202 225 245 230 219 219 184 200 225 230 221 234 239 227 227 240 245 234 248 292 308 309 310 313 314 318 322 324 323 320 315 314 305 298 287 285 278 262 245 234 224 216
193 192 176 175 198 207 234 216 213 223 188 178 168 255 244 231 216 201 245 231 244 239 235 231 231 228 231 236 233 237 262 290 298 298 302 306 308 312 313 314 311 308 309 307 310 296 287 280 271 256 238 232 224 213
191 169 169 192 203 198 197 190 203 213 198 200 195 263 247 203 188 218 254 245 238 215 216 221 223 226 226 231 238 248 266 287 301 303 306 310 315 314 309 308 305 301 300 295 293 289 288 270 263 254 238 228 222 215
158 180 178 186 189 139 177 178 185 202 225 165 207 250 233 180 174 240 236 259 230 225 205 200 203 215 229 241 252 261 271 286 299 305 307 309 309 310 309 307 303 300 302 290 288 288 282 267 256 250 242 230 222 216
189 193 177 181 177 173 188 169 195 197 160 178 230 208 173 113 84 243 232 242 233 202 194 199 199 216 237 255 271 277 282 282 289 297 304 301 300 300 303 304 305 302 305 295 282 276 277 267 256 251 245 236 227 219
175 189 183 174 168 156 144 143 149 154 185 209 193 170 138 209 238 248 233 227 197 188 189 196 215 240 271 282 281 284 286 289 293 295 293 293 294 296 296 297 296 301 299 285 271 260 258 267 261 253 248 241 232 221
178 166 160 170 160 169 143 155 166 214 216 195 146 181 197 203 237 221 214 195 201 211 224 231 241 254 265 276 282 284 287 289 289 286 287 290 292 293 298 295 291 288 281 277 269 256 243 249 259 253 246 239 231 221
158 157 132 128 132 182 207 188 208 216 199 181 180 208 232 224 235 224 211 210 231 247 255 259 261 264 270 277 282 287 288 286 286 289 291 292 296 300 301 286 282 276 269 266 265 258 244 243 252 248 243 239 232 219
162 161 121 160 165 201 208 196 204 206 205 210 227 252 257 258 261 255 258 268 275 282 282 272 269 272 277 280 283 280 282 284 285 286 288 291 295 297 291 280 271 266 261 265 257 245 232 239 241 232 228 224 221 210
153 162 130 163 199 184 188 197 209 222 231 239 241 251 260 277 279 280 279 278 277 277 277 277 276 276 278 283 290 295 297 300 295 292 290 290 288 288 286 275 264 269 254 252 242 234 228 220 215 215 218 216 212 206
153 167 142 143 161 175 172 184 197 216 229 231 239 237 254 257 265 269 263 265 262 257 261 268 276 282 288 293 296 298 300 302 305 305 299 290 284 287 286 273 259 260 246 241 227 228 227 220 216 212 210 206 204 192
116 127 116 117 125 163 172 165 184 284 244 251 245 236 228 236 247 250 256 256 243 251 264 272 285 295 300 302 303 303 301 301 302 306 306 294 287 286 281 250 252 238 232 221 224 225 220 215 211 206 204 197 188 176